Wadena, MN

7:26 AM CDT on May 28, 2017 (GMT -0500)
Wadena Municipal

Weather History for KADC - January, 2014

Change the Weather History Date:

Tuesday, January 7, 2014

  Actual Average Record
Temperature  
Mean Temperature -11 °F -  
Max Temperature -2 °F 13 °F 44 °F (2003)
Min Temperature -20 °F -8 °F -32 °F (1973)
Degree Days  
Heating Degree Days 76    
Moisture  
Dew Point -17 °F    
Average Humidity 75    
Maximum Humidity 84    
Minimum Humidity 65    
Precipitation  
Precipitation 0.00 in - - ()
Sea Level Pressure  
Sea Level Pressure 30.07 in    
Wind  
Wind Speed 7 mph (West)    
Max Wind Speed 14 mph    
Max Gust Speed -    
Visibility 10 miles    
Events      
Averages and records for this station are not official NWS values.
T = Trace of Precipitation, MM = Missing Value Source: NWS Daily Summary

Daily Weather History Graph

Daily Weather History Graph

Search for Another Location

Airport or City:

Trip Planner

Search our weather history database for the weather conditions in past years. The results will help you decide how hot, cold, wet, or windy it might be!

Date:

Astronomy

Jan. 07, 2014 Rise Set
Actual Time 8:03 AM CST 4:50 PM CST
Civil Twilight 7:29 AM CST 5:25 PM CST
Nautical Twilight 6:51 AM CST 6:03 PM CST
Astronomical Twilight 6:15 AM CST 6:39 PM CST
Moon 11:26 AM CST (1/7) No Moon Set
Length of Visible Light 9h 56m
Length of Day
8h 47m
Waxing Crescent, 46% of the Moon is Illuminated
Jan 7
Waxing Crescent
Jan 7
First Quarter
Jan 15
Full
Jan 23
Last Quarter
Jan 30
New

Hourly Weather History & Observations

Time (CST) Temp. Windchill Dew Point Humidity Pressure Visibility Wind Dir Wind Speed Gust Speed Precip Events Conditions
12:15 AM -18.4 °F -37.9 °F -23.8 °F 76% 30.03 in 10.0 mi WSW 9.2 mph - N/A   Clear
12:35 AM -18.4 °F -36.6 °F -23.8 °F 76% 30.02 in 10.0 mi WSW 8.1 mph - N/A   Clear
12:53 AM -18.4 °F -35.1 °F -25.6 °F 70% 30.01 in 10.0 mi West 6.9 mph - N/A   Clear
1:15 AM -20.2 °F -38.8 °F -25.6 °F 76% 30.01 in 10.0 mi West 8.1 mph - N/A   Clear
1:35 AM -20.2 °F -38.8 °F -25.6 °F 76% 30.01 in 10.0 mi West 8.1 mph - N/A   Clear
1:53 AM -20.2 °F -38.8 °F -25.6 °F 76% 30.01 in 10.0 mi West 8.1 mph - N/A   Clear
2:14 AM -18.4 °F -36.6 °F -23.8 °F 76% 30.01 in 10.0 mi West 8.1 mph - N/A   Clear
2:34 AM -18.4 °F -33.4 °F -23.8 °F 76% 30.01 in 10.0 mi West 5.8 mph - N/A   Clear
2:53 AM -18.4 °F -36.6 °F -23.8 °F 76% 30.01 in 10.0 mi WSW 8.1 mph - N/A   Scattered Clouds
3:15 AM -18.4 °F -31.4 °F -23.8 °F 76% 30.00 in 10.0 mi WSW 4.6 mph - N/A   Mostly Cloudy
3:35 AM -16.6 °F -26.8 °F -22.0 °F 76% 30.00 in 10.0 mi WSW 3.5 mph - N/A   Scattered Clouds
3:52 AM -16.6 °F -29.3 °F -22.0 °F 76% 30.00 in 10.0 mi WSW 4.6 mph - N/A   Clear
4:15 AM -16.6 °F -31.3 °F -20.2 °F 84% 30.00 in 10.0 mi WSW 5.8 mph - N/A   Scattered Clouds
4:34 AM -16.6 °F -31.3 °F -20.2 °F 84% 30.00 in 10.0 mi WSW 5.8 mph - N/A   Scattered Clouds
4:53 AM -16.6 °F -29.3 °F -20.2 °F 84% 30.00 in 10.0 mi WSW 4.6 mph - N/A   Scattered Clouds
5:15 AM -14.8 °F -27.2 °F -20.2 °F 77% 30.00 in 10.0 mi WSW 4.6 mph - N/A   Mostly Cloudy
5:35 AM -14.8 °F -29.1 °F -20.2 °F 77% 30.00 in 10.0 mi WSW 5.8 mph - N/A   Overcast
5:53 AM -14.8 °F -27.2 °F -20.2 °F 77% 29.99 in 10.0 mi SW 4.6 mph - N/A   Mostly Cloudy
6:15 AM -14.8 °F -27.2 °F -20.2 °F 77% 30.01 in 10.0 mi West 4.6 mph - N/A   Clear
6:35 AM -14.8 °F -29.1 °F -18.4 °F 84% 30.00 in 10.0 mi WSW 5.8 mph - N/A   Clear
6:52 AM -14.8 °F -27.2 °F -20.2 °F 77% 30.00 in 10.0 mi WSW 4.6 mph - N/A   Scattered Clouds
7:14 AM -14.8 °F - -20.2 °F 77% 30.00 in 10.0 mi Calm Calm - N/A   Scattered Clouds
7:35 AM -16.6 °F -26.8 °F -20.2 °F 84% 30.00 in 10.0 mi SW 3.5 mph - N/A   Clear
7:53 AM -16.6 °F -26.8 °F -20.2 °F 84% 30.01 in 10.0 mi WSW 3.5 mph - N/A   Clear
8:14 AM -16.6 °F -31.3 °F -20.2 °F 84% 30.02 in 10.0 mi West 5.8 mph - N/A   Clear
8:35 AM -14.8 °F -30.8 °F -20.2 °F 77% 30.03 in 10.0 mi West 6.9 mph - N/A   Clear
8:53 AM -14.8 °F -32.2 °F -20.2 °F 77% 30.04 in 10.0 mi West 8.1 mph - N/A   Clear
9:14 AM -13.0 °F -28.6 °F -18.4 °F 77% 30.04 in 10.0 mi West 6.9 mph - N/A   Clear
9:35 AM -11.2 °F -24.8 °F -16.6 °F 77% 30.05 in 10.0 mi West 5.8 mph - N/A   Clear
9:53 AM -9.4 °F -24.3 °F -14.8 °F 77% 30.05 in 10.0 mi West 6.9 mph - N/A   Clear
10:15 AM -9.4 °F -24.3 °F -14.8 °F 77% 30.05 in 10.0 mi West 6.9 mph - N/A   Clear
10:35 AM -7.6 °F -24.6 °F -14.8 °F 71% 30.06 in 10.0 mi WNW 9.2 mph - N/A   Clear
10:52 AM -7.6 °F -22.1 °F -14.8 °F 71% 30.05 in 10.0 mi WNW 6.9 mph - N/A   Clear
11:14 AM -5.8 °F -19.9 °F -14.8 °F 65% 30.05 in 10.0 mi WNW 6.9 mph - N/A   Clear
11:34 AM -5.8 °F -22.4 °F -13.0 °F 71% 30.04 in 10.0 mi WNW 9.2 mph - N/A   Clear
11:52 AM -5.8 °F -21.2 °F -13.0 °F 71% 30.05 in 10.0 mi WNW 8.1 mph - N/A   Clear
12:14 PM -5.8 °F -23.4 °F -13.0 °F 71% 30.05 in 10.0 mi WNW 10.4 mph - N/A   Clear
12:35 PM -4.0 °F -20.2 °F -11.2 °F 71% 30.04 in 10.0 mi NW 9.2 mph - N/A   Clear
12:53 PM -4.0 °F -17.8 °F -11.2 °F 71% 30.04 in 10.0 mi WNW 6.9 mph - N/A   Clear
1:15 PM -4.0 °F -20.2 °F -11.2 °F 71% 30.04 in 10.0 mi NW 9.2 mph - N/A   Clear
1:35 PM -4.0 °F -20.2 °F -11.2 °F 71% 30.06 in 10.0 mi NW 9.2 mph - N/A   Clear
1:52 PM -2.2 °F -19.9 °F -11.2 °F 66% 30.07 in 10.0 mi WNW 11.5 mph - N/A   Clear
2:15 PM -4.0 °F -20.2 °F -11.2 °F 71% 30.07 in 10.0 mi WNW 9.2 mph - N/A   Clear
2:35 PM -4.0 °F -20.2 °F -11.2 °F 71% 30.07 in 10.0 mi WNW 9.2 mph - N/A   Clear
2:52 PM -4.0 °F -23.7 °F -11.2 °F 71% 30.07 in 10.0 mi NW 13.8 mph - N/A   Clear
3:14 PM -4.0 °F -21.2 °F -11.2 °F 71% 30.08 in 10.0 mi WNW 10.4 mph - N/A   Scattered Clouds
3:34 PM -5.8 °F -22.4 °F -13.0 °F 71% 30.09 in 10.0 mi WNW 9.2 mph - N/A   Clear
3:52 PM -5.8 °F -22.4 °F -13.0 °F 71% 30.09 in 10.0 mi WNW 9.2 mph - N/A   Clear
4:15 PM -5.8 °F -19.9 °F -13.0 °F 71% 30.09 in 10.0 mi WNW 6.9 mph - N/A   Clear
4:35 PM -5.8 °F -16.7 °F -13.0 °F 71% 30.10 in 10.0 mi West 4.6 mph - N/A   Clear
4:52 PM -5.8 °F -18.4 °F -13.0 °F 71% 30.10 in 10.0 mi West 5.8 mph - N/A   Clear
5:14 PM -7.6 °F -20.6 °F -14.8 °F 71% 30.12 in 10.0 mi West 5.8 mph - N/A   Clear
5:35 PM -7.6 °F -20.6 °F -14.8 °F 71% 30.12 in 10.0 mi West 5.8 mph - N/A   Clear
5:52 PM -7.6 °F -22.1 °F -14.8 °F 71% 30.13 in 10.0 mi WNW 6.9 mph - N/A   Clear
6:14 PM -9.4 °F -22.7 °F -14.8 °F 77% 30.13 in 10.0 mi WNW 5.8 mph - N/A   Clear
6:35 PM -9.4 °F -18.6 °F -14.8 °F 77% 30.13 in 10.0 mi WNW 3.5 mph - N/A   Clear
6:53 PM -9.4 °F -18.6 °F -14.8 °F 77% 30.12 in 10.0 mi WNW 3.5 mph - N/A   Clear
7:14 PM -9.4 °F -18.6 °F -14.8 °F 77% 30.13 in 10.0 mi WNW 3.5 mph - N/A   Clear
7:34 PM -9.4 °F -20.9 °F -14.8 °F 77% 30.13 in 10.0 mi WNW 4.6 mph - N/A   Scattered Clouds
7:53 PM -9.4 °F -20.9 °F -14.8 °F 77% 30.15 in 10.0 mi WNW 4.6 mph - N/A   Overcast
8:15 PM -9.4 °F -25.6 °F -14.8 °F 77% 30.15 in 10.0 mi WNW 8.1 mph - N/A   Overcast
8:35 PM -9.4 °F -25.6 °F -14.8 °F 77% 30.16 in 10.0 mi NW 8.1 mph - N/A   Overcast
8:53 PM -9.4 °F -26.8 °F -16.6 °F 71% 30.17 in 10.0 mi WNW 9.2 mph - N/A   Overcast
9:15 PM -9.4 °F -27.9 °F -16.6 °F 71% 30.17 in 10.0 mi NW 10.4 mph - N/A   Overcast
9:35 PM -11.2 °F -30.1 °F -16.6 °F 77% 30.19 in 10.0 mi NW 10.4 mph - N/A   Overcast
9:53 PM -11.2 °F -26.4 °F -16.6 °F 77% 30.19 in 10.0 mi NW 6.9 mph - N/A   Overcast
10:15 PM -11.2 °F -26.4 °F -18.4 °F 70% 30.20 in 10.0 mi NW 6.9 mph - N/A   Overcast
10:35 PM -11.2 °F -24.8 °F -18.4 °F 70% 30.20 in 10.0 mi NW 5.8 mph - N/A   Overcast
10:53 PM -13.0 °F -27.0 °F -18.4 °F 77% 30.20 in 10.0 mi NW 5.8 mph - N/A   Mostly Cloudy
11:15 PM -14.8 °F -27.2 °F -18.4 °F 84% 30.20 in 10.0 mi WNW 4.6 mph - N/A   Clear
11:35 PM -13.0 °F -25.1 °F -18.4 °F 77% 30.20 in 10.0 mi WNW 4.6 mph - N/A   Clear
11:52 PM -14.8 °F -27.2 °F -18.4 °F 84% 30.20 in 10.0 mi West 4.6 mph - N/A   Clear